Regional Weather Roundup
Issued by NWS

Home | Current Version | Previous Version | Graphics & Text | Print | Product List | Glossary Off
Versions: 1 2 3 4 5 6 7 8 9 10 11 12 13 14 15 16 17 18 19 20 21 22 23 24 25 26 27 28 29 30 31 32 33 34 35 36 37 38 39 40 41 42 43 44 45 46 47 48 49 50

000
ASUS43 KMKX 050759
RWRWI

WISCONSIN REGIONAL WEATHER ROUNDUP
NATIONAL WEATHER SERVICE MILWAUKEE/SULLIVAN WI
200 AM CST THU MAR 05 2015

NOTE: "FAIR" INDICATES FEW OR NO CLOUDS BELOW 12,000 FEET WITH NO
SIGNIFICANT WEATHER AND/OR OBSTRUCTIONS TO VISIBILITY.

WIZ001-002-006>008-014>016-023>028-050900-
NORTHWEST WISCONSIN

CITY           SKY/WX    TMP DP  RH WIND       PRES   REMARKS
SUPERIOR ARPT  CLEAR    -11 -17  73 SW3       30.43R
ASHLAND        CLEAR     -8 -17  64 SW7       30.38S WCI -23
HAYWARD        CLEAR    -20 -28  67 CALM      30.35R
SIREN          CLEAR    -16 -22  72 CALM      30.41R
CUMBERLAND     CLEAR    -11 -20  64 NW5       30.36S WCI -23
RICE LAKE      CLEAR    -10 -18  68 CALM      30.38S
CHETEK         CLEAR    -11 -16  78 CALM      30.39R
LADYSMITH      CLEAR    -12 -17  77 CALM      30.36S
EAU CLAIRE     NOT AVBL
MENOMONIE      CLEAR     -3 -14  61 W3        30.42R
NEW RICHMOND   CLEAR     -8 -15  69 NW5       30.41S WCI -19
OSCEOLA        CLEAR    -12 -18  75 CALM      30.46R
$$

WIZ003>005-009-010-017-018-050900-
NORTH CENTRAL WISCONSIN

CITY           SKY/WX    TMP DP  RH WIND       PRES   REMARKS
MANITOWISH WTR FAIR     -11 -18  71 NW5       30.25R WCI -23
ARBOR VITAE    CLEAR     -9 -15  73 CALM      30.25R
WOODRUFF       CLEAR     -9 -15  73 CALM      30.25R
RHINELANDER    CLEAR    -11 -18  71 W7        30.27R WCI -26
EAGLE RIVER    CLEAR     -9 -18  65 CALM      30.24R
LAND O LAKES   CLEAR    -18 -24  75 CALM      30.25R
PHILLIPS       CLEAR    -18 -22  80 CALM      30.29R
TOMAHAWK       FAIR     -14 -19  80 CALM      30.30R
MEDFORD        CLEAR    -10 -17  71 W5        30.31R WCI -21
MERRILL        CLEAR    -13 -18  80 CALM      30.32R
$$

WIZ029-030-035-036-043>047-050900-
CENTRAL WISCONSIN

CITY           SKY/WX    TMP DP  RH WIND       PRES   REMARKS
WAUSAU         CLEAR     -6 -14  68 NW3       30.33R
MOSINEE        CLEAR     -8 -15  71 SW3       30.35R
MARSHFIELD     CLEAR     -5 -14  65 W7        30.35R WCI -19
STEVENS POINT  CLEAR     -8 -16  70 CALM      30.36F
WAUPACA        CLEAR      0 -12  59 CALM      30.38F
WAUTOMA        NOT AVBL
WISC RAPIDS    CLEAR     -6 -15  65 NW3       30.38F
CAMP DOUGLAS   NOT AVBL
$$

WIZ011>013-019>022-031-037>040-048>050-050900-
NORTHEAST WISCONSIN

CITY           SKY/WX    TMP DP  RH WIND       PRES   REMARKS
ANTIGO         CLEAR    -13 -17  80 SW6       30.30R WCI -27
SHAWANO        CLEAR     -3 -12  65 CALM      30.38R
OCONTO         CLEAR    -10 -16  76 CALM      30.38S
STURGEON BAY   CLEAR      0 -13  55 CALM      30.37S
GREEN BAY      CLEAR     -4 -12  68 NW6       30.37F WCI -16
MANITOWOC      NOT AVBL
APPLETON       CLEAR      1 -13  51 NW6       30.36F WCI -10
CLINTONVILLE   CLEAR     -6 -13  71 CALM      30.37F
OSHKOSH        CLEAR      1 -11  57 NW5       30.37S WCI  -9
$$

WIZ032>034-041-042-053>061-050900-
SOUTHWEST WISCONSIN

CITY           SKY/WX    TMP DP  RH WIND       PRES   REMARKS
LA CROSSE      CLEAR      0 -10  63 NW6       30.45R WCI -12
SPARTA         CLEAR     -6 -12  75 CALM      30.42S
VIROQUA        CLEAR     -2  -8  72 NW3       30.36S
BOSCOBEL       CLEAR     -2  -9  72 CALM      30.43R
PRAIRIE DU CHI CLEAR      2  -8  63 NW8       30.44R WCI -12
PLATTEVILLE    PTCLDY     1  -7  71 W5        30.37S WCI  -9
$$

WIZ056-057-062-063-064-067-068-050900-
SOUTH CENTRAL WISCONSIN

CITY           SKY/WX    TMP DP  RH WIND       PRES   REMARKS
REEDSBURG      CLEAR      2  -9  60 NW3       30.39S
BARABOO/DELLS  CLEAR      0 -11  61 CALM      30.37F
LONE ROCK      NOT AVBL
MINERAL POINT  PTCLDY     1  -6  71 NW3       30.35S
MADISON        PTCLDY     3  -8  60 NW5       30.38R WCI  -6
MIDDLETON      PTCLDY     5  -8  55 N7        30.37S WCI  -7
WATERTOWN      PTCLDY     5  -7  57 NW6       30.36F WCI  -6
MONROE         PTCLDY     5  -2  72 NW8       30.34F WCI  -8
JANESVILLE     PTCLDY     3  -6  66 NW3       30.36F
$$

WIZ051-052-058>065-066-070>072-050900-
SOUTHEAST WISCONSIN

CITY           SKY/WX    TMP DP  RH WIND       PRES   REMARKS
MILWAUKEE      MOCLDY     8  -9  45 NW9       30.36F WCI  -5
WAUKESHA       PTCLDY     3  -9  55 NW6       30.35F WCI  -8
MILWAUKEE/TIMM PTCLDY     5  -9  51 NW6       30.37S WCI  -6
RACINE         CLEAR      6  -9  50 NW6       30.37F WCI  -4
BURLINGTON     CLEAR     -4 -13  67 N5        30.36F WCI -15
KENOSHA        CLEAR      3  -9  57 NW6       30.35F WCI  -8
FOND DU LAC    FLURRIES   1 -11  57 NW7       30.37S WCI -12
SHEBOYGAN      PTCLDY     2 -10  57 N6        30.36S WCI  -9
WEST BEND      PTCLDY     5  -9  51 NW5       30.35S WCI  -4
JUNEAU         CLEAR      3  -8  59 NW3       30.37S
$$

LSZ147-162-050900-
LAKE SUPERIOR

STATION/POSITION TIME  TEMP    WIND        PRES    WAVE
                       AIR SEA DIR/SP/G            HT/PER
                 (UTC) (F)     (DEG/KT/KT) (MB)    (FT/S)
DEVILS ISLAND    0700    5     290/  6/  7 1029.9S
PORT WING        0740   -5     200/  7/  8 1029.5R
SAXON HARBOR     0700   -2     210/  6/ 11 1028.4R
$$

LMZ867-665-643>646-050900-
LAKE MICHIGAN

STATION/POSITION TIME  TEMP    WIND        PRES    WAVE
                       AIR SEA DIR/SP/G            HT/PER
                 (UTC) (F)     (DEG/KT/KT) (MB)    (FT/S)
NORTHPORT PIER   0713    2     280/  4/ 12 1027.8R
KEWAUNEE LAKESHO 0700    0     310/  3/  5   N/A
SHEBOYGAN LAKESH 0700    7     320/ 12/ 14 1030.2R
PORT WASHINGTON  0740    7     310/  4/  7 1029.1R
MILWAUKEE LAKESH 0700   10     310/  7/ 10   N/A
KENOSHA   LAKESH 0700    8     310/  7/ 10 1028.1R
$$

TC  - TEMPERATURE IN CELSIUS
VSB - VISIBILITY IN STATUTE MILES
WCI - WIND CHILL INDEX
HX  - HEAT INDEX




USA.gov is the U.S. government's official web portal to all federal, state and local government web resources and services.